This is the latest recevied weather packets stored in our database for station/object N5ATR. If no packets are shown the sender has not sent any weather packets the latest 1 day(s).
| Time | Temp. | Humidity | Pressure | Rain* | Wind** | Luminosity | Snow |
|---|---|---|---|---|---|---|---|
| 1778034707 | 8.33° C | 69% | 1010.9 hPa | 0 mm | 2.68 m/s, 318° | 0 W/m² | - |
| 1778034404 | 8.33° C | 69% | 1010.6 hPa | 0 mm | 0.89 m/s, 335° | 0 W/m² | - |
| 1778034102 | 8.33° C | 69% | 1010.8 hPa | 0 mm | 0.89 m/s, 294° | 0 W/m² | - |
| 1778033800 | 8.33° C | 68% | 1010.6 hPa | 0 mm | 0.45 m/s, 322° | 0 W/m² | - |
| 1778033496 | 8.33° C | 68% | 1010.5 hPa | 0 mm | 0.89 m/s, 329° | 0 W/m² | - |
| 1778033193 | 8.33° C | 67% | 1010.3 hPa | 0 mm | 0.45 m/s, 304° | 0 W/m² | - |
| 1778032891 | 8.89° C | 67% | 1010.3 hPa | 0 mm | 0.89 m/s, 314° | 1 W/m² | - |
| 1778032589 | 8.89° C | 66% | 1010.2 hPa | 0 mm | 0.45 m/s, 343° | 2 W/m² | - |
| 1778032285 | 9.44° C | 64% | 1010.2 hPa | 0 mm | 0.89 m/s, 271° | 5 W/m² | - |
| 1778031983 | 10° C | 63% | 1010 hPa | 0 mm | 0.89 m/s, 263° | 7 W/m² | - |
| 1778031678 | 10° C | 63% | 1010.1 hPa | 0 mm | 1.79 m/s, 276° | 22 W/m² | - |
| 1778031377 | 9.44° C | 63% | 1010 hPa | 0 mm | 1.79 m/s, 313° | 23 W/m² | - |
| 1778031073 | 9.44° C | 63% | 1009.6 hPa | 0 mm | 2.24 m/s, 295° | 12 W/m² | - |
| 1778030769 | 9.44° C | 62% | 1009.8 hPa | 0 mm | 2.68 m/s, 296° | 16 W/m² | - |
| 1778030466 | 10.56° C | 60% | 1010.1 hPa | 0 mm | 3.13 m/s, 327° | 19 W/m² | - |
| 1778030164 | 10.56° C | 58% | 1010 hPa | 0 mm | 2.68 m/s, 271° | 45 W/m² | - |
| 1778029859 | 11.11° C | 56% | 1010.1 hPa | 0 mm | 4.47 m/s, 270° | 22 W/m² | - |
| 1778029554 | 11.11° C | 58% | 1009.6 hPa | 0 mm | 1.79 m/s, 274° | 21 W/m² | - |
| 1778029250 | 11.11° C | 58% | 1009.5 hPa | 0 mm | 1.79 m/s, 257° | 18 W/m² | - |
| 1778028947 | 11.11° C | 58% | 1009.5 hPa | 0 mm | 1.34 m/s, 265° | 28 W/m² | - |
| 1778028643 | 11.11° C | 58% | 1010 hPa | 0 mm | 1.79 m/s, 280° | 44 W/m² | - |
| 1778028340 | 11.11° C | 57% | 1009.6 hPa | 0 mm | 2.68 m/s, 295° | 29 W/m² | - |
| 1778028047 | 11.67° C | 56% | 1009.6 hPa | 0 mm | 2.68 m/s, 228° | 41 W/m² | - |
| 1778027734 | 11.67° C | 56% | 1009.7 hPa | 0 mm | 2.24 m/s, 230° | 37 W/m² | - |
| 1778027430 | 11.67° C | 55% | 1009.3 hPa | 0 mm | 2.68 m/s, 255° | 35 W/m² | - |
* Rain latest hour (hover to see other rain measurements)
** Current wind speed in m/s (hover to see current wind gust speed)